M I D A S
Marine Information and Data Acquisition System
Tripno 767 of the Zeeleeuw from 2004-08-25 06:24:38 to 2004-08-25 13:28:47
Back to CruiseResearch ActivitiesStationsMapUnderway DataData graphs

EquipmentUnitsComments
TimeDGPSUTC
LatitudeDGPSDM.mWGS84
LongitudeDGPSDM.mWGS84
SpeedMeteo Stationm/sRelative wind speed
DirectionMeteo StationdegRelative wind direction
TemperatureMeteo Stationdeg CelciusAir temperature
PressureMeteo StationPaAtmospheric pressure
HumidityMeteo Station%Relative humidity
Missing or incorrect values are displayed as -999
Metereological data collected by the RV Zeeleeuw from 2004-08-25 06:24:38 to 2004-08-25 13:28:47
Time Latitude Longitude Speed Direction Temperature Pressure Humidity
2004-08-25 06:25 51°13.595 2°56.114 3.2 111 15 100480 92
2004-08-25 06:26 51°13.595 2°56.113 6.5 98 15 100480 91
2004-08-25 06:27 51°13.611 2°56.056 4.2 124 15 100480 91
2004-08-25 06:28 51°13.618 2°56.042 5.4 120 15 100470 91
2004-08-25 06:29 51°13.647 2°55.959 2.8 122 15 100470 91
2004-08-25 06:30 51°13.671 2°55.844 5.3 40 15 100480 91
2004-08-25 06:31 51°13.67 2°55.761 4.3 148 15 100470 91
2004-08-25 06:32 51°13.733 2°55.727 4.3 306 15 100470 91
2004-08-25 06:33 51°13.843 2°55.617 1.5 280 15.1 100470 91
2004-08-25 06:34 51°13.985 2°55.515 4.4 255 15.1 100460 91
2004-08-25 06:35 51°14.136 2°55.409 2.6 339 15.1 100460 90
2004-08-25 06:36 51°14.285 2°55.228 6.9 317 15.1 100460 90
2004-08-25 06:37 51°14.418 2°54.985 10 301 15.2 100440 90
2004-08-25 06:38 51°14.585 2°54.761 8.4 282 15.2 100420 90
2004-08-25 06:39 51°14.76 2°54.552 10.5 287 15.2 100420 90
2004-08-25 06:40 51°14.942 2°54.347 11.1 286 15.3 100430 90
2004-08-25 06:41 51°15.133 2°54.148 9.5 270 15.4 100440 90
2004-08-25 06:42 51°15.323 2°53.963 10 273 15.4 100420 89
2004-08-25 06:43 51°15.523 2°53.781 11.5 285 15.5 100420 90
2004-08-25 06:44 51°15.713 2°53.608 10.4 271 15.5 100420 89
2004-08-25 06:45 51°15.924 2°53.455 11.4 265 15.5 100430 89
2004-08-25 06:46 51°16.135 2°53.303 9 268 15.5 100430 89
2004-08-25 06:47 51°16.346 2°53.178 11.4 268 15.5 100430 89
2004-08-25 06:48 51°16.563 2°53.045 9.1 274 15.5 100440 89
2004-08-25 06:49 51°16.77 2°52.911 9.9 274 15.6 100440 89
2004-08-25 06:50 51°16.975 2°52.777 9.4 270 15.7 100440 89
2004-08-25 06:51 51°17.187 2°52.641 10.7 273 15.7 100430 89
2004-08-25 06:52 51°17.393 2°52.48 11.5 280 15.8 100430 89
2004-08-25 06:53 51°17.541 2°52.24 12.5 304 15.8 100410 89
2004-08-25 06:54 51°17.665 2°51.943 13.5 301 15.8 100400 88
2004-08-25 06:55 51°17.787 2°51.659 13.8 308 15.9 100410 89
2004-08-25 06:56 51°17.91 2°51.367 15.4 314 16 100400 89
2004-08-25 06:57 51°18.034 2°51.085 13.2 315 16 100400 88
2004-08-25 06:58 51°18.165 2°50.788 12.9 302 16 100390 87
2004-08-25 06:59 51°18.286 2°50.504 13.2 307 16.1 100410 87
2004-08-25 07:00 51°18.405 2°50.204 12.9 308 16 100390 87
2004-08-25 07:01 51°18.519 2°49.914 14.4 301 16.1 100400 88
2004-08-25 07:02 51°18.632 2°49.618 14 308 16.1 100400 88
2004-08-25 07:03 51°18.754 2°49.306 14.1 310 16.1 100390 88
2004-08-25 07:04 51°18.871 2°49.014 13.1 312 16 100390 87
2004-08-25 07:05 51°18.989 2°48.724 13.5 305 16.1 100380 87
2004-08-25 07:06 51°19.11 2°48.395 14.8 314 16.2 100400 88
2004-08-25 07:07 51°19.204 2°48.085 14.7 313 16 100390 87
2004-08-25 07:09 51°19.303 2°47.763 13.7 314 16 100360 88
2004-08-25 07:10 51°19.395 2°47.462 13.4 312 16.1 100380 88
2004-08-25 07:11 51°19.471 2°47.141 14.7 310 16.1 100370 89
2004-08-25 07:12 51°19.548 2°46.776 15 40 16 100370 88
2004-08-25 07:13 51°19.619 2°46.465 15 314 16 100370 89
2004-08-25 07:14 51°19.686 2°46.141 15.2 311 16.1 100370 89
2004-08-25 07:15 51°19.754 2°45.831 14.5 227 16.1 100380 89
2004-08-25 07:16 51°19.812 2°45.511 13.3 318 16 100380 89
2004-08-25 07:17 51°19.864 2°45.209 13.2 323 16 100360 90
2004-08-25 07:18 51°19.903 2°44.874 14.4 316 15.9 100350 90
2004-08-25 07:19 51°19.942 2°44.516 14.1 228 15.8 100360 90
2004-08-25 07:20 51°19.98 2°44.183 15 313 15.7 100340 92
2004-08-25 07:21 51°20.022 2°43.802 17.8 314 15.6 100340 92
2004-08-25 07:22 51°20.058 2°43.473 15.7 311 15.5 100320 93
2004-08-25 07:23 51°20.094 2°43.147 16.4 315 15.6 100320 93
2004-08-25 07:24 51°20.13 2°42.824 15.8 315 15.6 100320 93
2004-08-25 07:25 51°20.167 2°42.499 16.1 317 15.6 100320 93
2004-08-25 07:26 51°20.204 2°42.169 14.7 229 15.7 100330 94
2004-08-25 07:27 51°20.239 2°41.845 12.9 336 15.7 100350 94
2004-08-25 07:28 51°20.275 2°41.533 12.5 2 15.8 100410 94
2004-08-25 07:29 51°20.313 2°41.209 16.7 347 16.1 100410 94
2004-08-25 07:30 51°20.35 2°40.887 13.9 358 16.2 100410 94
2004-08-25 07:31 51°20.388 2°40.565 14.9 3 16.2 100390 91
2004-08-25 07:32 51°20.425 2°40.249 15.2 1 16.4 100390 88
2004-08-25 07:33 51°20.462 2°39.923 14.6 357 16.6 100400 87
2004-08-25 07:34 51°20.499 2°39.598 13.6 358 16.7 100420 85
2004-08-25 07:35 51°20.538 2°39.223 14.4 355 16.8 100400 84
2004-08-25 07:36 51°20.574 2°38.9 15 5 16.9 100400 83
2004-08-25 07:37 51°20.61 2°38.569 14.8 3 16.9 100410 81
2004-08-25 07:38 51°20.641 2°38.245 14.6 359 16.9 100390 81
2004-08-25 07:39 51°20.677 2°37.915 12.9 1 17 100400 81
2004-08-25 07:40 51°20.714 2°37.573 14.7 2 17 100390 81
2004-08-25 07:41 51°20.749 2°37.246 15.1 8 17 100400 79
2004-08-25 07:42 51°20.784 2°36.92 13.4 7 17 100380 79
2004-08-25 07:43 51°20.821 2°36.597 13.1 1 17 100390 80
2004-08-25 07:44 51°20.859 2°36.273 13.6 7 17 100400 80
2004-08-25 07:45 51°20.899 2°35.924 13.9 2 17 100380 78
2004-08-25 07:46 51°20.939 2°35.598 14.5 360 17.1 100400 79
2004-08-25 07:47 51°20.982 2°35.275 13.8 1 17.2 100410 79
2004-08-25 07:48 51°21.028 2°34.931 14.3 357 17.2 100400 78
2004-08-25 07:49 51°21.07 2°34.616 12.4 2 17.3 100400 79
2004-08-25 07:50 51°21.109 2°34.294 13.4 359 17.2 100410 79
2004-08-25 07:51 51°21.148 2°33.975 12.3 4 17.2 100410 78
2004-08-25 07:52 51°21.211 2°33.656 12.7 351 17.3 100400 79
2004-08-25 07:53 51°21.376 2°33.434 12 326 17.2 100390 79
2004-08-25 07:54 51°21.599 2°33.355 11 324 17.2 100390 80
2004-08-25 07:55 51°21.825 2°33.276 11.4 326 17.2 100400 80
2004-08-25 07:56 51°22.051 2°33.203 11 330 17.2 100400 80
2004-08-25 07:57 51°22.23 2°32.997 13.3 350 17.2 100420 81
2004-08-25 07:58 51°22.345 2°32.726 12.8 357 17.1 100410 81
2004-08-25 07:59 51°22.39 2°32.399 14 1 17.1 100410 80
2004-08-25 08:00 51°22.412 2°32.069 12.5 5 17 100410 80
2004-08-25 08:01 51°22.423 2°31.716 13.9 4 17.1 100430 81
2004-08-25 08:02 51°22.437 2°31.394 13.9 3 17 100420 80
2004-08-25 08:03 51°22.453 2°31.066 13.9 2 17 100410 79
2004-08-25 08:04 51°22.464 2°30.751 12.3 10 17 100410 80
2004-08-25 08:05 51°22.473 2°30.429 12.8 6 17 100400 80
2004-08-25 08:06 51°22.486 2°30.109 12.5 10 17 100420 79
2004-08-25 08:07 51°22.5 2°29.769 12.5 9 17 100430 79
2004-08-25 08:08 51°22.511 2°29.442 12.8 13 17 100410 79
2004-08-25 08:10 51°22.527 2°29.089 13 17 17 100410 80
2004-08-25 08:11 51°22.539 2°28.765 12.6 16 17 100410 80
2004-08-25 08:12 51°22.551 2°28.44 13.2 10 16.9 100430 79
2004-08-25 08:13 51°22.573 2°28.123 12.4 13 17 100420 79
2004-08-25 08:14 51°22.599 2°27.741 12.8 12 16.9 100440 79
2004-08-25 08:15 51°22.621 2°27.412 11.7 12 16.9 100430 80
2004-08-25 08:16 51°22.645 2°27.048 13.2 9 16.9 100420 80
2004-08-25 08:17 51°22.67 2°26.689 11.9 13 16.9 100450 80
2004-08-25 08:18 51°22.698 2°26.366 12.7 5 16.9 100420 79
2004-08-25 08:19 51°22.802 2°26.031 12.5 6 16.9 100440 79
2004-08-25 08:20 51°22.917 2°25.75 12.7 353 16.9 100440 79
2004-08-25 08:21 51°23.129 2°25.62 10.4 340 16.9 100440 79
2004-08-25 08:22 51°23.37 2°25.635 10.7 333 16.9 100440 80
2004-08-25 08:23 51°23.614 2°25.66 10.9 334 16.9 100450 80
2004-08-25 08:24 51°23.871 2°25.694 10.6 335 16.9 100450 80
2004-08-25 08:25 51°24.112 2°25.718 10.8 331 16.9 100450 80
2004-08-25 08:26 51°24.356 2°25.751 10.6 327 16.8 100450 80
2004-08-25 08:27 51°24.593 2°25.769 10.3 335 16.8 100440 80
2004-08-25 08:28 51°24.858 2°25.8 10.9 339 16.8 100440 80
2004-08-25 08:29 51°25.099 2°25.819 10.7 338 16.8 100440 80
2004-08-25 08:30 51°25.338 2°25.847 9 335 16.8 100450 81
2004-08-25 08:31 51°25.575 2°25.884 10.7 333 16.8 100450 81
2004-08-25 08:32 51°25.822 2°25.917 8.8 335 16.8 100460 81
2004-08-25 08:33 51°26.072 2°25.968 10 336 16.8 100460 81
2004-08-25 08:34 51°26.311 2°26.023 9.9 331 16.8 100450 81
2004-08-25 08:35 51°26.558 2°26.073 9.6 338 16.8 100460 82
2004-08-25 08:36 51°26.799 2°26.126 10 321 16.8 100460 82
2004-08-25 08:37 51°27.031 2°26.198 8.5 333 16.8 100460 82
2004-08-25 08:38 51°27.273 2°26.269 8.9 337 16.8 100450 82
2004-08-25 08:39 51°27.515 2°26.346 7.9 338 16.9 100460 82
2004-08-25 08:40 51°27.767 2°26.426 10.9 336 16.9 100450 82
2004-08-25 08:41 51°27.993 2°26.492 10.2 333 16.8 100450 81
2004-08-25 08:42 51°28.234 2°26.567 10.8 330 16.9 100440 79
2004-08-25 08:43 51°28.482 2°26.641 10.6 325 16.9 100450 79
2004-08-25 08:44 51°28.695 2°26.704 7.7 328 17 100450 79
2004-08-25 08:45 51°28.775 2°26.716 6.3 296 17.1 100460 78
2004-08-25 08:46 51°28.804 2°26.742 5.2 286 17.2 100470 79
2004-08-25 08:47 51°28.818 2°26.775 5.4 268 17.2 100460 78
2004-08-25 08:48 51°28.839 2°26.81 4.9 264 17.1 100480 77
2004-08-25 08:49 51°28.864 2°26.844 4.8 275 17.1 100480 77
2004-08-25 08:50 51°28.891 2°26.879 5.5 268 17.2 100480 77
2004-08-25 08:51 51°28.919 2°26.913 5.3 272 17.3 100480 77
2004-08-25 08:52 51°28.946 2°26.946 4.9 281 17.3 100480 77
2004-08-25 08:53 51°28.979 2°26.982 5.2 292 17.3 100480 77
2004-08-25 08:54 51°29.142 2°27.033 9 338 17.4 100470 77
2004-08-25 08:55 51°29.38 2°27.064 9.9 334 17.4 100470 77
2004-08-25 08:57 51°29.642 2°27.073 8.5 337 17.3 100460 77
2004-08-25 08:58 51°29.876 2°27.074 9 338 17.3 100460 78
2004-08-25 08:59 51°30.112 2°27.079 7.9 331 17.3 100470 78
2004-08-25 09:00 51°30.357 2°27.086 9.9 328 17.2 100460 79
2004-08-25 09:01 51°30.621 2°27.099 4.4 323 17.2 100460 79
2004-08-25 09:02 51°30.862 2°27.099 9.4 329 17.2 100470 79
2004-08-25 09:03 51°31.101 2°27.115 8.8 328 17.1 100460 79
2004-08-25 09:04 51°31.341 2°27.125 8.8 322 17.2 100460 79
2004-08-25 09:05 51°31.58 2°27.144 9.8 322 17.2 100460 80
2004-08-25 09:06 51°31.827 2°27.171 11 327 17.2 100460 80
2004-08-25 09:07 51°32.063 2°27.199 9.4 336 17.2 100460 80
2004-08-25 09:08 51°32.31 2°27.232 10.4 331 17.1 100450 80
2004-08-25 09:09 51°32.563 2°27.26 10 332 17.1 100450 79
2004-08-25 09:10 51°32.796 2°27.315 9.4 328 17.1 100470 78
2004-08-25 09:11 51°33.03 2°27.401 9.3 329 17.2 100460 78
2004-08-25 09:12 51°33.267 2°27.515 9.3 324 17.2 100470 78
2004-08-25 09:13 51°33.499 2°27.629 9.1 318 17.2 100470 78
2004-08-25 09:14 51°33.727 2°27.752 7.5 333 17.2 100470 77
2004-08-25 09:15 51°33.955 2°27.871 9.7 316 17.2 100460 77
2004-08-25 09:16 51°34.211 2°28.014 8.8 321 17.2 100460 77
2004-08-25 09:17 51°34.45 2°28.139 8 319 17.2 100460 77
2004-08-25 09:18 51°34.671 2°28.257 8.6 323 17.2 100470 78
2004-08-25 09:19 51°34.932 2°28.396 9 41 17.2 100470 78
2004-08-25 09:20 51°35.16 2°28.532 8.8 316 17.2 100470 79
2004-08-25 09:21 51°35.382 2°28.687 7.7 41 17.2 100470 78
2004-08-25 09:22 51°35.602 2°28.851 7.3 315 17.2 100470 78
2004-08-25 09:23 51°35.803 2°29.04 8.5 314 17.2 100480 78
2004-08-25 09:24 51°36.024 2°29.238 7.5 228 17.2 100470 79
2004-08-25 09:25 51°36.225 2°29.454 6.1 322 17.2 100460 79
2004-08-25 09:26 51°36.419 2°29.674 7 228 17.2 100470 79
2004-08-25 09:27 51°36.629 2°29.882 7.9 228 17.3 100470 79
2004-08-25 09:28 51°36.847 2°30.117 6.4 314 17.3 100470 79
2004-08-25 09:29 51°37.073 2°30.351 6.5 43 17.3 100470 79
2004-08-25 09:30 51°37.278 2°30.566 6.7 311 17.2 100470 78
2004-08-25 09:31 51°37.494 2°30.785 6.9 43 17.3 100470 78
2004-08-25 09:32 51°37.718 2°31.014 6.9 308 17.3 100460 78
2004-08-25 09:33 51°37.923 2°31.237 5.6 307 17.3 100470 78
2004-08-25 09:34 51°38.119 2°31.462 5.9 226 17.3 100470 78
2004-08-25 09:35 51°38.312 2°31.689 7 309 17.3 100470 79
2004-08-25 09:36 51°38.519 2°31.928 5.5 305 17.3 100480 78
2004-08-25 09:37 51°38.731 2°32.182 6.9 227 17.3 100470 79
2004-08-25 09:38 51°38.928 2°32.402 7.1 302 17.3 100470 78
2004-08-25 09:39 51°39.131 2°32.628 6.6 299 17.3 100470 79
2004-08-25 09:40 51°39.322 2°32.851 6 309 17.3 100480 79
2004-08-25 09:42 51°39.53 2°33.107 7.2 303 17.4 100480 79
2004-08-25 09:43 51°39.727 2°33.348 8.2 302 17.4 100480 79
2004-08-25 09:44 51°39.925 2°33.585 8 301 17.4 100470 79
2004-08-25 09:45 51°40.142 2°33.844 7.6 307 17.4 100480 79
2004-08-25 09:46 51°40.331 2°34.068 8.4 312 17.4 100470 79
2004-08-25 09:47 51°40.571 2°34.345 7.2 305 17.4 100480 79
2004-08-25 09:48 51°40.773 2°34.584 7.2 308 17.4 100470 79
2004-08-25 09:49 51°40.988 2°34.839 8.9 302 17.4 100470 78
2004-08-25 09:50 51°41.177 2°35.064 7 314 17.3 100480 78
2004-08-25 09:51 51°41.393 2°35.326 7.9 309 17.3 100480 78
2004-08-25 09:52 51°41.591 2°35.558 8.6 306 17.3 100480 79
2004-08-25 09:53 51°41.799 2°35.808 6.9 299 17.3 100480 78
2004-08-25 09:54 51°42.009 2°36.064 6.7 306 17.3 100470 78
2004-08-25 09:55 51°42.219 2°36.325 8.9 306 17.3 100470 78
2004-08-25 09:56 51°42.403 2°36.547 8.5 306 17.3 100470 78
2004-08-25 09:57 51°42.621 2°36.809 7.3 301 17.3 100470 78
2004-08-25 09:58 51°42.816 2°37.091 5.6 307 17.3 100480 78
2004-08-25 09:59 51°42.875 2°37.45 0.7 273 17.3 100490 78
2004-08-25 10:00 51°42.793 2°37.786 2.7 81 17.4 100490 78
2004-08-25 10:01 51°42.676 2°38.095 3.6 93 17.4 100490 79
2004-08-25 10:02 51°42.554 2°38.398 5.2 91 17.3 100490 78
2004-08-25 10:03 51°42.434 2°38.701 4.7 86 17.2 100490 79
2004-08-25 10:04 51°42.317 2°39.001 3.7 89 17.2 100490 79
2004-08-25 10:05 51°42.197 2°39.309 3.6 72 17.1 100490 78
2004-08-25 10:06 51°42.078 2°39.611 5.2 100 17.1 100500 79
2004-08-25 10:07 51°41.957 2°39.909 4.1 95 17.1 100490 79
2004-08-25 10:08 51°41.836 2°40.211 3.6 97 17.1 100500 79
2004-08-25 10:09 51°41.714 2°40.515 4.1 76 17.1 100500 79
2004-08-25 10:10 51°41.589 2°40.816 3.8 94 17.1 100490 79
2004-08-25 10:11 51°41.472 2°41.124 3.5 85 17.1 100490 80
2004-08-25 10:12 51°41.354 2°41.43 4.6 89 17.2 100490 80
2004-08-25 10:13 51°41.229 2°41.728 3.7 95 17.2 100500 80
2004-08-25 10:14 51°41.103 2°42.028 4 99 17.2 100490 80
2004-08-25 10:15 51°40.983 2°42.334 5.2 92 17.2 100500 80
2004-08-25 10:16 51°40.859 2°42.638 4.5 109 17.2 100500 80
2004-08-25 10:17 51°40.739 2°42.94 3.2 108 17.1 100500 79
2004-08-25 10:18 51°40.617 2°43.243 3.4 124 17.1 100500 80
2004-08-25 10:19 51°40.491 2°43.543 3 113 17.1 100500 80
2004-08-25 10:20 51°40.373 2°43.841 5 91 17.2 100500 81
2004-08-25 10:21 51°40.247 2°44.148 4 106 17.2 100500 81
2004-08-25 10:22 51°40.102 2°44.402 5.9 89 17.1 100510 80
2004-08-25 10:23 51°39.926 2°44.615 6.8 90 17.1 100500 80
2004-08-25 10:24 51°39.744 2°44.816 7.3 88 17.1 100500 80
2004-08-25 10:25 51°39.538 2°44.897 9.3 76 17.1 100500 81
2004-08-25 10:26 51°39.327 2°44.932 11.7 61 17 100500 81
2004-08-25 10:27 51°39.12 2°44.908 8.7 68 17.1 100480 81
2004-08-25 10:28 51°38.911 2°44.885 10.9 56 17.1 100480 82
2004-08-25 10:29 51°38.708 2°44.807 12.1 46 17.1 100480 81
2004-08-25 10:30 51°38.517 2°44.679 13.4 41 17.1 100470 81
2004-08-25 10:31 51°38.354 2°44.477 13.6 33 17.1 100490 80
2004-08-25 10:32 51°38.222 2°44.222 15.1 25 17.1 100480 81
2004-08-25 10:33 51°38.139 2°43.921 15.4 5 17.2 100500 81
2004-08-25 10:34 51°38.157 2°43.577 15 3 17.2 100490 80
2004-08-25 10:35 51°38.161 2°43.236 14.9 10 17.2 100490 80
2004-08-25 10:36 51°38.153 2°42.891 14.5 16 17.2 100490 80
2004-08-25 10:37 51°38.143 2°42.542 16.2 11 17.2 100500 79
2004-08-25 10:38 51°38.13 2°42.175 15.1 9 17.2 100490 79
2004-08-25 10:39 51°38.117 2°41.823 15.2 12 17.2 100490 79
2004-08-25 10:40 51°38.103 2°41.487 15.9 16 17.2 100490 78
2004-08-25 10:41 51°38.091 2°41.147 15.8 9 17.2 100500 79
2004-08-25 10:42 51°38.06 2°40.808 17.1 17 17.2 100490 79
2004-08-25 10:43 51°37.973 2°40.496 14.5 26 17.2 100490 79
2004-08-25 10:44 51°37.841 2°40.235 13.6 35 17.1 100490 79
2004-08-25 10:45 51°37.672 2°40.057 13.5 47 17.1 100490 79
2004-08-25 10:46 51°37.478 2°39.938 13.1 48 17 100480 79
2004-08-25 10:47 51°37.283 2°39.816 14.1 49 17 100490 80
2004-08-25 10:48 51°37.089 2°39.699 12.6 51 16.9 100470 79
2004-08-25 10:49 51°36.892 2°39.577 13.6 50 17 100480 79
2004-08-25 10:50 51°36.696 2°39.459 12.4 50 17 100480 80
2004-08-25 10:51 51°36.499 2°39.35 13 49 17 100490 80
2004-08-25 10:52 51°36.302 2°39.234 13.8 44 16.9 100470 80
2004-08-25 10:54 51°36.095 2°39.118 12.2 55 16.9 100500 78
2004-08-25 10:55 51°35.894 2°39.008 13.4 53 16.9 100490 79
2004-08-25 10:56 51°35.692 2°38.918 13.3 58 16.9 100500 80
2004-08-25 10:56 51°35.5 2°38.828 13.5 55 16.9 100480 80
2004-08-25 10:57 51°35.292 2°38.742 12.2 56 17 100480 80
2004-08-25 10:58 51°35.086 2°38.668 12.8 49 17 100480 80
2004-08-25 11:00 51°34.875 2°38.596 11.5 58 16.9 100490 79
2004-08-25 11:01 51°34.659 2°38.674 8.2 78 16.9 100490 78
2004-08-25 11:02 51°34.486 2°38.884 6.7 100 17 100510 78
2004-08-25 11:03 51°34.326 2°39.12 7 96 17 100510 77
2004-08-25 11:04 51°34.151 2°39.376 6.9 91 17.1 100510 77
2004-08-25 11:05 51°33.986 2°39.609 6.6 99 17.1 100510 77
2004-08-25 11:06 51°33.822 2°39.83 8.6 88 17.1 100520 77
2004-08-25 11:07 51°33.656 2°40.069 8.6 87 17.2 100520 77
2004-08-25 11:08 51°33.458 2°40.202 10.5 70 17.2 100520 79
2004-08-25 11:09 51°33.242 2°40.22 12.6 61 17.1 100500 78
2004-08-25 11:10 51°33.033 2°40.16 12.4 53 17.1 100480 78
2004-08-25 11:11 51°32.816 2°40.103 11.8 59 17.1 100500 78
2004-08-25 11:12 51°32.601 2°40.044 12.3 62 17 100480 78
2004-08-25 11:13 51°32.396 2°39.983 13.4 54 17.1 100500 78
2004-08-25 11:14 51°32.159 2°39.913 13.7 55 17 100490 78
2004-08-25 11:15 51°31.933 2°39.847 13.2 59 17 100490 79
2004-08-25 11:16 51°31.724 2°39.791 13.5 53 17 100500 79
2004-08-25 11:17 51°31.508 2°39.731 13.2 60 17 100500 80
2004-08-25 11:18 51°31.295 2°39.673 13 55 17 100500 79
2004-08-25 11:19 51°31.099 2°39.562 14.6 43 17 100500 79
2004-08-25 11:20 51°30.913 2°39.383 14.4 42 17 100500 79
2004-08-25 11:21 51°30.764 2°39.147 16 31 17 100510 80
2004-08-25 11:22 51°30.621 2°38.889 16 34 17 100500 79
2004-08-25 11:23 51°30.476 2°38.634 15 30 17.1 100510 79
2004-08-25 11:24 51°30.325 2°38.373 15.1 29 17.1 100500 79
2004-08-25 11:25 51°30.165 2°38.105 14.6 38 17.1 100510 79
2004-08-25 11:26 51°30.012 2°37.851 15.9 37 17.1 100490 79
2004-08-25 11:27 51°29.86 2°37.601 16.3 41 17 100500 78
2004-08-25 11:28 51°29.713 2°37.358 13.9 34 17 100510 78
2004-08-25 11:29 51°29.555 2°37.092 14.2 38 17.1 100510 77
2004-08-25 11:30 51°29.405 2°36.839 15.4 30 17.1 100530 77
2004-08-25 11:31 51°29.255 2°36.587 15.1 35 17.2 100520 78
2004-08-25 11:32 51°29.085 2°36.383 13.8 56 17.2 100510 77
2004-08-25 11:33 51°28.863 2°36.273 12 56 17.1 100530 78
2004-08-25 11:34 51°28.655 2°36.172 13.9 55 17 100520 78
2004-08-25 11:35 51°28.445 2°36.068 14.2 50 17.1 100530 78
2004-08-25 11:36 51°28.237 2°36.038 9.5 72 17 100530 77
2004-08-25 11:37 51°28.017 2°36.116 6.7 77 17 100540 77
2004-08-25 11:38 51°27.819 2°36.286 8.8 91 17.1 100560 77
2004-08-25 11:39 51°27.611 2°36.505 7.6 80 17.2 100560 77
2004-08-25 11:40 51°27.421 2°36.7 8 83 17.2 100560 77
2004-08-25 11:41 51°27.232 2°36.894 7.2 82 17.2 100560 77
2004-08-25 11:42 51°27.046 2°37.08 6.7 96 17.2 100560 77
2004-08-25 11:43 51°26.852 2°37.273 8.5 87 17.3 100560 78
2004-08-25 11:44 51°26.663 2°37.464 7 84 17.3 100560 78
2004-08-25 11:45 51°26.498 2°37.696 5.6 112 17.3 100560 77
2004-08-25 11:46 51°26.395 2°38.019 4.1 112 17.3 100570 76
2004-08-25 11:47 51°26.29 2°38.34 3.4 117 17.4 100570 76
2004-08-25 11:48 51°26.191 2°38.658 3.1 111 17.4 100580 76
2004-08-25 11:49 51°26.079 2°38.977 6.1 103 17.5 100570 75
2004-08-25 11:50 51°25.919 2°39.229 9.5 84 17.5 100570 74
2004-08-25 11:51 51°25.718 2°39.369 8.6 67 17.4 100560 75
2004-08-25 11:52 51°25.5 2°39.456 10.2 70 17.4 100560 76
2004-08-25 11:53 51°25.277 2°39.523 10.4 66 17.4 100550 76
2004-08-25 11:54 51°25.058 2°39.584 10.7 65 17.3 100550 77
2004-08-25 11:55 51°24.835 2°39.615 12.3 56 17.3 100560 77
2004-08-25 11:56 51°24.619 2°39.588 12 57 17.3 100550 77
2004-08-25 11:57 51°24.394 2°39.568 13.9 57 17.3 100550 78
2004-08-25 11:58 51°24.165 2°39.554 11.2 58 17.2 100560 77
2004-08-25 11:59 51°23.944 2°39.535 11.1 60 17.2 100560 78
2004-08-25 12:00 51°23.721 2°39.517 12 61 17.2 100560 79
2004-08-25 12:01 51°23.498 2°39.501 11.6 56 17.2 100560 78
2004-08-25 12:02 51°23.272 2°39.482 12.6 58 17.3 100560 79
2004-08-25 12:03 51°23.047 2°39.458 12.1 60 17.2 100550 77
2004-08-25 12:04 51°22.81 2°39.438 11.1 64 17.2 100570 77
2004-08-25 12:05 51°22.593 2°39.441 11.4 58 17.2 100560 77
2004-08-25 12:06 51°22.361 2°39.482 9.7 65 17.2 100570 77
2004-08-25 12:07 51°22.141 2°39.521 11.2 64 17.2 100570 78
2004-08-25 12:08 51°21.911 2°39.561 11.7 65 17.2 100570 78
2004-08-25 12:09 51°21.656 2°39.604 11.8 59 17.2 100560 76
2004-08-25 12:10 51°21.429 2°39.639 12 67 17.2 100580 76
2004-08-25 12:11 51°21.208 2°39.677 13.8 62 17.3 100590 78
2004-08-25 12:12 51°20.987 2°39.756 12.4 68 17.2 100560 80
2004-08-25 12:13 51°20.786 2°39.937 11 87 16.8 100580 82
2004-08-25 12:14 51°20.647 2°40.248 6.9 101 16.6 100610 82
2004-08-25 12:15 51°20.549 2°40.56 6.4 102 16.5 100610 84
2004-08-25 12:16 51°20.493 2°40.909 4.2 113 16.4 100620 85
2004-08-25 12:17 51°20.44 2°41.263 4.8 106 16.3 100620 85
2004-08-25 12:18 51°20.383 2°41.602 3.7 104 16.3 100620 86
2004-08-25 12:19 51°20.321 2°41.957 4.8 97 16.3 100620 86
2004-08-25 12:20 51°20.274 2°42.299 3.3 115 16.2 100620 87
2004-08-25 12:21 51°20.243 2°42.649 3 99 16.2 100630 86
2004-08-25 12:22 51°20.214 2°42.992 2.1 112 16.1 100630 85
2004-08-25 12:23 51°20.184 2°43.352 2.3 95 15.9 100630 84
2004-08-25 12:25 51°20.146 2°43.774 1.9 109 16 100620 84
2004-08-25 12:26 51°20.115 2°44.117 3.6 95 16 100620 83
2004-08-25 12:27 51°20.075 2°44.474 3 114 16 100630 81
2004-08-25 12:28 51°20.038 2°44.832 3 112 16 100630 81
2004-08-25 12:29 51°20.001 2°45.177 3.1 115 16.2 100630 82
2004-08-25 12:30 51°19.96 2°45.529 2.4 125 16.3 100630 83
2004-08-25 12:31 51°19.927 2°45.856 2.2 92 16.3 100630 84
2004-08-25 12:32 51°19.842 2°46.181 7.2 85 16.4 100620 85
2004-08-25 12:33 51°19.73 2°46.48 5.6 96 16.5 100620 86
2004-08-25 12:34 51°19.616 2°46.783 5.1 93 16.5 100620 86
2004-08-25 12:35 51°19.498 2°47.079 5.1 91 16.5 100630 87
2004-08-25 12:36 51°19.382 2°47.387 4.8 86 16.5 100630 87
2004-08-25 12:37 51°19.265 2°47.683 5.7 93 16.5 100620 88
2004-08-25 12:38 51°19.148 2°47.985 6.7 87 16.5 100630 88
2004-08-25 12:39 51°19.034 2°48.283 5.6 91 16.5 100630 88
2004-08-25 12:40 51°18.92 2°48.581 5.3 86 16.5 100630 89
2004-08-25 12:41 51°18.805 2°48.875 4.1 79 16.5 100630 89
2004-08-25 12:42 51°18.685 2°49.164 3.6 77 16.5 100630 89
2004-08-25 12:43 51°18.574 2°49.458 4.3 70 16.5 100630 89
2004-08-25 12:44 51°18.458 2°49.757 3 87 16.5 100630 89
2004-08-25 12:45 51°18.344 2°50.058 3.4 85 16.5 100630 89
2004-08-25 12:46 51°18.226 2°50.356 3.8 97 16.5 100630 89
2004-08-25 12:47 51°18.107 2°50.661 3 98 16.5 100630 89
2004-08-25 12:48 51°17.994 2°50.957 2.8 96 16.6 100640 89
2004-08-25 12:49 51°17.879 2°51.258 3.4 115 16.6 100640 89
2004-08-25 12:50 51°17.762 2°51.562 2.6 98 16.7 100640 89
2004-08-25 12:51 51°17.614 2°51.825 5.7 84 16.7 100630 89
2004-08-25 12:52 51°17.46 2°52.077 6.3 78 16.7 100630 88
2004-08-25 12:53 51°17.273 2°52.275 10.6 86 16.8 100610 87
2004-08-25 12:54 51°17.088 2°52.479 8.8 102 17 100620 85
2004-08-25 12:55 51°16.955 2°52.605 9.5 88 17.1 100620 83
2004-08-25 12:56 51°16.845 2°52.646 13.3 87 17.3 100610 83
2004-08-25 12:57 51°16.748 2°52.671 12.5 88 17.4 100610 82
2004-08-25 12:58 51°16.657 2°52.688 12.2 90 17.4 100610 81
2004-08-25 12:59 51°16.556 2°52.715 11.4 100 17.5 100610 82
2004-08-25 13:00 51°16.464 2°52.749 9.4 99 17.5 100610 81
2004-08-25 13:01 51°16.373 2°52.786 11.5 92 17.6 100600 80
2004-08-25 13:02 51°16.282 2°52.818 11.4 98 17.5 100610 80
2004-08-25 13:03 51°16.191 2°52.853 11.2 97 17.6 100610 80
2004-08-25 13:04 51°16.099 2°52.887 9.9 102 17.5 100610 79
2004-08-25 13:05 51°16.007 2°52.92 11.5 96 17.6 100610 80
2004-08-25 13:06 51°15.915 2°52.955 10.3 101 17.6 100600 80
2004-08-25 13:07 51°15.824 2°52.993 9.6 93 17.6 100610 80
2004-08-25 13:08 51°15.743 2°53.03 10.3 106 17.6 100610 80
2004-08-25 13:09 51°15.674 2°53.053 9.8 100 17.6 100600 79
2004-08-25 13:10 51°15.618 2°53.081 9.4 116 17.7 100610 78
2004-08-25 13:11 51°15.566 2°53.114 9.7 119 17.7 100610 78
2004-08-25 13:12 51°15.516 2°53.148 8.2 117 17.7 100610 78
2004-08-25 13:13 51°15.465 2°53.182 9.5 110 17.8 100610 79
2004-08-25 13:14 51°15.415 2°53.213 10.6 117 17.8 100610 77
2004-08-25 13:15 51°15.365 2°53.241 9.7 113 17.8 100600 76
2004-08-25 13:16 51°15.311 2°53.269 9.8 114 17.8 100600 76
2004-08-25 13:17 51°15.262 2°53.302 9.8 120 17.7 100610 74
2004-08-25 13:18 51°15.215 2°53.347 8.9 122 17.8 100610 74
2004-08-25 13:19 51°15.165 2°53.402 10.3 122 17.9 100600 76
2004-08-25 13:20 51°15.121 2°53.445 8.6 123 17.9 100600 75
2004-08-25 13:21 51°15.07 2°53.492 9.8 116 17.9 100610 77
2004-08-25 13:22 51°15.021 2°53.543 10.1 118 17.9 100610 77
2004-08-25 13:23 51°14.954 2°53.651 7.2 114 17.9 100610 77
2004-08-25 13:24 51°14.852 2°53.891 7.5 118 17.9 100610 76
2004-08-25 13:25 51°14.743 2°54.148 6.4 114 17.9 100620 75
2004-08-25 13:26 51°14.626 2°54.43 7.4 122 17.9 100620 76
2004-08-25 13:27 51°14.519 2°54.688 8.3 119 17.9 100620 76
2004-08-25 13:28 51°14.409 2°54.95 8.2 121 17.9 100610 76